Regional Weather Roundup
Issued by NWS

Home | Current Version | Previous Version | Graphics & Text | Print | Product List | Glossary Off
Versions: 1 2 3 4 5 6 7 8 9 10 11 12 13 14 15 16 17 18 19 20 21 22 23 24 25 26 27 28 29 30 31 32 33 34 35 36 37 38 39 40 41 42 43 44 45 46 47 48 49

000
ASUS43 KDMX 211507
RWRIA

WEATHER ROUNDUP FOR IOWA
NATIONAL WEATHER SERVICE DES MOINES IA
1000 AM CDT SUN SEP 21 2014

NOTE: "FAIR" INDICATES FEW OR NO CLOUDS BELOW 12,000 FEET WITH NO
SIGNIFICANT WEATHER AND/OR OBSTRUCTIONS TO VISIBILITY.

* - THESE STATIONS ARE NOT NWS STATIONS...THUS NOT UNDER NWS
QUALITY CONTROL.  THEY ALSO DO NOT REPORT WEATHER SUCH
AS PRECIPITATION OR FOG.

IAZ001>003-012>014-020>022-031>034-043>046-211600-
   NORTHWEST IOWA

CITY           SKY/WX    TMP DP  RH WIND       PRES   REMARKS
CARROLL *      SUNNY     63  48  59 NW18G25   30.16S
CHEROKEE *     SUNNY     59  50  72 N13G18    30.19R
DENISON *      SUNNY     59  50  72 NW13G20   30.18R
LE MARS *      SUNNY     61  48  63 N10G18    30.22R
ORANGE CITY *  SUNNY     61  48  63 N13G18    30.21R
SHELDON *      SUNNY     59  48  67 N15G22    30.19R
SIOUX CITY     SUNNY     60  47  61 NW12      30.22R
SPENCER        MOSUNNY   60  48  64 N18       30.17R
STORM LAKE *   SUNNY     57  50  77 NW14G21   30.18R
$$

IAZ055>058-069>071-079>083-090>094-211600-
   SOUTHWEST IOWA

CITY           SKY/WX    TMP DP  RH WIND       PRES   REMARKS
ATLANTIC *     SUNNY     61  50  67 N16G24    30.18R
AUDUBON *      SUNNY     61  48  63 N12G18    30.18R
CLARINDA *     SUNNY     64  48  55 NW13G20   30.20R
COUNCIL BLFS * SUNNY     61  50  67 NW13G18   30.20R
CRESTON *      SUNNY     61  50  67 NW17      30.17R
HARLAN  *      SUNNY     61  50  67 N14G22    30.23R
LAMONI         SUNNY     63  51  65 NW16      30.14R
RED OAK *      SUNNY     63  50  63 NW14G20   30.20R
SHENANDOAH *   SUNNY     64  50  59 NW10      30.20S
$$

IAZ047>049-059>061-072>074-084-211600-
   CENTRAL IOWA

CITY           SKY/WX    TMP DP  RH WIND       PRES   REMARKS
AMES           SUNNY     61  49  64 NW17G26   30.12R
ANKENY *       SUNNY     63  50  63 NW12G20   30.11R
CHARITON *     SUNNY     63  50  63 NW15      30.12R
DES MOINES     SUNNY     64  48  56 N21G29    30.11R
GRINNELL*      SUNNY     61  48  63 NW14G20   30.09R
KNOXVILLE *    SUNNY     63  48  59 NW14G22   30.09R
MARSHALLTOWN   SUNNY     61  49  64 N17       30.08R
PELLA *        SUNNY     63  50  63 N18G26    30.10R
PERRY *          N/A     64  48  55 NW14      30.14R
$$

IAZ004>006-015-016-023>025-035-036-211600-
   NORTH CENTRAL IOWA

CITY           SKY/WX    TMP DP  RH WIND       PRES   REMARKS
ALGONA *       MOSUNNY   59  48  67 N13G22    30.14R
CLARION *        N/A     59  48  67 N17G26    30.12R
ESTHERVILLE    MOSUNNY   57  48  72 NW16G26   30.16R
FORT DODGE *   SUNNY     61  46  59 N10G17    30.15R
MASON CITY     CLOUDY    55  49  80 N18G26    30.12R
FOREST CITY *  CLOUDY    55  50  82 NW17G25   30.12R
IOWA FALLS *     N/A     59  48  67 NW16G28   30.11R
$$

IAZ007>011-017>019-026>030-037>042-050>054-066-211600-
   NORTHEAST IOWA

CITY           SKY/WX    TMP DP  RH WIND       PRES   REMARKS
CEDAR RAPIDS   MOSUNNY   59  50  72 N21G29    30.02R
CHARLES CITY * CLOUDY    55  48  76 NW18G25   30.08R
CLINTON *      CLOUDY    57  48  72 NW16G28   30.00R
DECORAH *      CLOUDY    54  50  87 NW14G25   30.01R
DUBUQUE        CLOUDY    56  50  80 NW15G24   29.97R
MONTICELLO *   CLOUDY    57  50  77 NW17G26   30.01R
OELWEIN *      CLOUDY    57  50  77 NW16G26   30.04R
WATERLOO       CLOUDY    56  49  77 NW17G24   30.05R
$$

IAZ064-065-067-068-078-211600-
   EAST CENTRAL IOWA

CITY           SKY/WX    TMP DP  RH WIND       PRES   REMARKS
DAVENPORT      MOSUNNY   61  47  59 NW21G30   29.98R
IOWA CITY        N/A     61  50  67 NW16G23   30.03R
MT. PLEASANT * SUNNY     64  46  52 NW15G22   30.04R
MUSCATINE *    SUNNY     64  48  55 NW18G26   30.01R
QUAD CITIES    SUNNY     63  50  62 NW20G29   29.98R
$$

IAZ062-063-075>077-085>089-095>099-211600-
   SOUTHEAST IOWA

CITY           SKY/WX    TMP DP  RH WIND       PRES   REMARKS
BURLINGTON     SUNNY     65  50  58 NW15G24   30.01R
FAIRFIELD *    SUNNY     64  48  55 NW22G28   30.06R
FORT MADISON * SUNNY     66  50  55 NW15G25   30.04R
KEOKUK *       SUNNY     64  52  63 NW15G24   30.04R
OSKALOOSA *      N/A     63  50  63 NW17G23   30.08R
CENTERVILLE *  SUNNY     64  50  59 NW16      30.11S
OTTUMWA        SUNNY     63  49  60 NW23G29   30.07R
WASHINGTON *   SUNNY     63  50  63 NW15G31   30.04R
$$

ABBREVIATIONS USED IN REMARKS
   TC - TEMPERATURES IN CELSIUS
  WCI - WIND CHILL INDEX
   HX - HEAT INDEX
  VSB - VISIBILITY
$$




USA.gov is the U.S. government's official web portal to all federal, state and local government web resources and services.